Location: *
(35.8942°N, 23.3025°E)
Time: 23:40:43
(UTC+00:00)

Cosmos 44 - Pass Details

Date: 21 September 2021
Orbit: 576 x 785 km, 65.1° (Epoch: 22 October)

Event Time Altitude Azimuth Distance (km) Brightness Sun altitude
Exits shadow 02:16:03 45° 312° (NW) 1,069 4.0 -24.2°
Drops below altitude 10° 02:20:59 10° 17° (NNE) 2,339 6.4 -23.3°
Sets 02:23:30 0° 24° (NNE) 3,258 7.4 -22.8°
